#timestamp,LO_Frequency,Hit,StdDev 
1531414815.1,286047001.7,N
1531414835.8,286047002.5,N
1531414855.7,286047002.1,N
1531414875.5,286047002.3,N
1531414895.4,286047002.3,N
1531414915.2,286046999.7,N
1531414935.0,286046999.9,N
1531414935.9,286046999.9,N
1531414955.8,286046999.9,N
1531414975.6,286047000.1,N
1531414995.5,286047001.5,N
1531415015.3,286046999.9,N
1531415035.1,286047000.2,N
1531415055.9,286047000.4,N
1531415075.7,286047002.6,N
1531415095.5,286047001.4,N
1531415115.6,286047001.7,N
1531415135.4,286047004.0,N
1531415155.2,286046999.7,N
1531415175.1,286047000.1,N
1531415176.0,286047000.1,N
1531415195.8,286047000.4,N
1531415215.7,286047000.8,N
1531415235.5,286047001.2,N
1531415255.3,286047001.2,N
1531415275.2,286047000.2,N
1531415295.0,286047002.7,N
1531415295.9,286047002.7,N
1531415315.8,286047002.2,N
1531415335.6,286047002.1,N
1531415355.4,286047001.5,N
1531415375.3,286047004.4,Y
1531415395.1,286047002.3,P
1531415415.9,286047000.4,N
1531415435.7,286046999.7,N
1531415455.5,286047001.8,N
1531415475.4,286047000.1,N
1531415495.2,286046999.7,N
1531415515.0,286047002.8,N
1531415515.9,286047002.8,N
1531415535.8,286046999.9,N
1531415555.6,286046999.7,N
1531415575.5,286047000.1,N
1531415595.3,286047001.0,N
1531415615.1,286046998.1,N
1531415635.9,286047001.0,N
1531415655.7,286047002.7,N
1531415675.5,286047002.3,N
1531415695.4,286047000.1,N
1531415715.2,286047000.4,N
1531415735.1,286046998.5,N
1531415736.0,286046998.5,N
1531415755.8,286046999.9,N
1531415775.6,286046998.3,N
1531415795.5,286046998.4,N
1531415815.3,286047001.1,N
1531415835.2,286047000.7,N
1531415855.9,286047002.1,N
1531415875.7,286047002.4,N
1531415895.6,286047002.6,N
1531415915.4,286047002.8,N
1531415935.2,286047002.2,N
1531415955.1,286046999.7,N
1531415956.0,286046999.7,N
1531415975.8,286047002.8,N
1531415995.7,286047002.7,N
1531416015.5,286047002.3,N
1531416035.3,286047002.7,N
1531416055.2,286047000.9,N
1531416075.0,286047000.6,N
1531416075.9,286047000.6,N
1531416095.7,286047000.7,N
1531416115.6,286046998.6,N
1531416135.4,286047000.5,N
1531416155.3,286047000.2,N
1531416175.1,286047002.3,N
1531416176.0,286047002.3,N
1531416195.8,286047000.5,N
1531416215.7,286047002.7,N
1531416235.5,286047001.1,N
1531416255.4,286047000.7,N
1531416275.2,286046998.6,N
1531416295.0,286046998.1,N
1531416295.9,286046998.1,N
1531416315.8,286047000.1,N
1531416335.6,286047002.8,N
1531416355.5,286046999.8,N
1531416375.3,286047002.7,N
1531416395.1,286046999.8,N
1531416415.9,286047002.4,N
1531416435.7,286046999.7,N
1531416455.5,286047000.2,N
1531416475.4,286047000.7,N
1531416495.2,286047000.4,N
1531416515.1,286047000.5,N
1531416516.0,286047000.5,N
1531416535.8,286046999.8,N
1531416555.6,286047000.1,N
1531416575.5,286047001.2,N
1531416595.3,286047000.7,N
1531416615.1,286046998.3,N
1531416635.9,286047000.8,N
1531416655.7,286046998.2,N
1531416675.6,286046999.7,N
1531416695.4,286046998.3,N
1531416715.2,286046998.8,N
1531416735.1,286046998.2,N
1531416736.0,286046998.2,N
1531416755.8,286047000.5,N
1531416775.7,286047000.3,N
1531416795.5,286047001.2,N
1531416815.3,286047000.6,N
1531416835.2,286047000.5,N
1531416855.0,286047000.0,N
1531416855.9,286047000.0,N
1531416875.8,286047002.3,N
1531416895.6,286047000.1,N
1531416915.4,286047002.4,N
1531416935.3,286047002.3,N
1531416955.1,286047004.4,Y
1531416975.8,286047002.8,P
1531416995.7,286047002.4,N
1531417015.5,286047002.3,N
1531417035.4,286047000.7,N
1531417055.2,286046999.7,N
1531417075.0,286047002.8,N
1531417075.9,286047002.8,N
1531417095.8,286047004.3,Y
1531417115.6,286047002.3,P
1531417135.5,286047000.9,N
1531417155.3,286046999.7,N
1531417175.1,286047000.5,N
1531417195.9,286047002.5,N
1531417215.7,286046998.5,N
1531417235.6,286046998.3,N
1531417255.4,286047001.0,N
1531417275.2,286046998.6,N
1531417295.1,286046998.1,N
1531417296.0,286046998.1,N
1531417315.8,286046998.2,N
1531417335.6,286047001.1,N
1531417355.5,286046998.3,N
1531417375.3,286046998.2,N
1531417395.2,286046999.4,N
1531417415.9,286047000.8,N
1531417435.7,286047002.3,N
1531417455.6,286047000.8,N
1531417475.4,286047001.0,N
1531417495.2,286046998.8,N
1531417515.1,286046998.9,N
1531417516.0,286046998.9,N
1531417535.8,286046998.5,N
1531417555.7,286047000.5,N
1531417575.5,286047000.5,N
1531417595.3,286047002.6,N
1531417615.2,286047002.8,N
1531417635.0,286047000.7,N
1531417635.9,286047000.7,N
1531417655.8,286047001.1,N
1531417675.6,286047001.2,N
1531417695.4,286046998.3,N
1531417715.3,286046997.0,N
1531417735.1,286046999.4,N
1531417755.9,286046998.5,N
1531417775.7,286047000.6,N
1531417795.5,286046999.9,N
1531417815.4,286047000.5,N
1531417835.2,286047000.9,N
1531417855.0,286047002.8,N
1531417856.0,286047002.8,N
1531417875.8,286047001.3,N
1531417895.6,286047001.9,N
1531417915.5,286047002.8,N
1531417935.3,286047002.7,N
1531417955.1,286047000.4,N
1531417975.9,286046998.1,N
1531417995.7,286046999.4,N
1531418015.5,286046997.5,N
1531418035.4,286046997.6,N
1531418055.2,286046999.0,N
1531418075.1,286047001.2,N
1531418076.0,286047001.2,N
1531418095.8,286047000.0,N
1531418115.6,286046998.5,N
1531418135.5,286046996.6,N
1531418155.3,286046998.6,N
1531418175.2,286046999.3,N
1531418195.9,286046996.6,N
1531418215.7,286046996.6,N
1531418235.6,286046997.4,N
1531418255.4,286046997.6,N
1531418275.3,286046997.2,N
1531418295.1,286046996.6,N
1531418296.0,286046996.6,N
1531418315.8,286046997.4,N
1531418335.7,286046997.1,N
1531418355.5,286046998.9,N
1531418375.3,286046996.5,N
1531418395.2,286046999.2,N
